Location: Unspecified
(0.0000°N, 0.0000°E)
Time: 06:09:25
(UTC+00:00)

TIROS 6 DEB - Pass Details

Date: 16 August 2024
Orbit: 609 x 625 km, 58.3° (Epoch: 04 September)

Event Time Altitude Azimuth Distance (km) Brightness Sun altitude
Exits shadow 04:17:39 12° 163° (SSE) 1,842 ? -25.9°
Maximum altitude 04:20:31 21° 119° (ESE) 1,409 ? -25.2°
Drops below altitude 10° 04:23:53 10° 70° (ENE) 1,976 ? -24.3°
Sets 04:26:38 0° 54° (NE) 2,876 ? -23.7°
